Location: Rounton
(54.4000°N, 1.3500°W)
Time: 15:06:48
(UTC+00:00)

Transit 2A - Pass Details

Date: 06 December 2021
Orbit: 591 x 967 km, 66.7° (Epoch: 21 January)

Event Time Altitude Azimuth Distance (km) Brightness Sun altitude
Rises 00:54:46 0° 229° (SW) 3,386 - -56.3°
Reaches altitude 10° 00:57:09 10° 231° (SW) 2,505 - -56.1°
Maximum altitude 01:03:01 71° 316° (NW) 972 - -55.7°
Drops below altitude 10° 01:09:22 10° 41° (NE) 2,696 - -55.3°
Exits shadow 01:10:50 - 43° (NE) 3,232 9.7 -55.2°
Sets 01:12:00 0° 44° (NE) 3,661 10.0 -55.1°
